Back to catalog

COSMOS 839

AliveMilitaryUNKNOWN
NORAD 9011·PAYLOAD·🇷🇺 Russia

Launched Jul 8, 1976 from Plesetsk Cosmodrome

Loading…

Next Passes (next 24 hours)

TLE

FreshSource: Space-Track

Epoch: Sep 14, 2026, 00:30 UTC

1 09011U 76067A   26257.02093613 -.00000051  00000-0  16384-4 0  9996
2 09011  65.8524  92.0285 0710116 253.6203  98.5624 12.32897348271085

Track COSMOS 839 in real time with AllMySat

Download on the App Store